[Iaude] MPEC O97: 2024 OR [a=29.65,e=0.58,i=25.9,H=8.9]
    mpec at cfa.harvard.edu 
    mpec at cfa.harvard.edu
       
    Tue Jul 30 07:55:57 EDT 2024
    
    
  
M.P.E.C. 2024-O97                                 Issued 2024 July 30, 11:54 UT
     The Minor Planet Electronic Circulars contain information on unusual
         minor planets, routine data on comets and natural satellites,
         and occasional editorial announcements.  They are published
    on behalf of Division F of the International Astronomical Union by the
          Minor Planet Center, Smithsonian Astrophysical Observatory,
                          Cambridge, MA 02138, U.S.A.
			  
             Prepared using the Tamkin Foundation Computer Network
                              MPC at CFA.HARVARD.EDU
            URL https://www.minorplanetcenter.net/    ISSN 1523-6714
                                    2024 OR                                     
Observations:
     K24O00R  C2022 07 04.44325919 18 39.593-31 11 06.74         19.57GVEO097F52
     K24O00R  C2022 07 04.45157819 18 39.460-31 11 06.72         19.49GVEO097F52
     K24O00R  C2022 07 04.45989719 18 39.328-31 11 06.59         19.43GVEO097F52
     K24O00R  C2022 07 04.46818319 18 39.185-31 11 06.51         19.66GVEO097F52
     K24O00R  C2022 08 01.33783419 11 31.810-31 00 17.88         19.89GVEO097F52
     K24O00R  C2022 08 01.34607019 11 31.691-31 00 17.61         19.89GVEO097F52
     K24O00R  C2022 08 01.35433519 11 31.572-31 00 17.29         19.94GVEO097F52
     K24O00R  C2022 08 01.36262319 11 31.451-31 00 16.98         19.97GVEO097F52
     K24O00R  C2023 05 16.56683220 05 47.136-25 15 51.55         19.56GVEO097F51
     K24O00R  C2023 05 16.57744320 05 47.122-25 15 51.32         19.81GVEO097F51
     K24O00R  C2023 05 16.59067220 05 47.080-25 15 51.20         19.91GVEO097F51
     K24O00R  C2023 06 16.52911420 01 56.172-25 12 38.74         19.92GVEO097F51
     K24O00R  C2023 06 20.48455620 01 08.879-25 12 36.91         19.67GVEO097F52
     K24O00R  C2023 06 28.48126619 59 24.165-25 12 34.87         19.60GVEO097F51
     K24O00R  C2023 06 28.49092119 59 24.026-25 12 34.99         19.56GVEO097F51
     K24O00R  C2023 06 28.50056219 59 23.892-25 12 34.92         19.64GVEO097F51
     K24O00R  C2023 06 28.51020319 59 23.757-25 12 34.90         19.64GVEO097F51
     K24O00R  C2023 08 05.29478719 49 59.661-25 08 26.95         19.81GVEO097F52
     K24O00R  C2023 08 05.30048519 49 59.577-25 08 26.88         19.78GVEO097F52
     K24O00R  C2023 08 05.30618319 49 59.495-25 08 26.78         19.80GVEO097F52
     K24O00R  C2023 08 18.27621919 47 04.925-25 03 50.96         20.09GVEO097F51
     K24O00R  C2023 08 18.28136219 47 04.855-25 03 50.85         20.01GVEO097F51
     K24O00R  C2023 08 18.28653519 47 04.786-25 03 50.68         19.91GVEO097F51
     K24O00R  C2023 08 18.29167219 47 04.727-25 03 50.68         19.89GVEO097F51
     K24O00R  C2023 09 11.26328519 43 19.006-24 49 33.22         20.18GVEO097F52
     K24O00R  C2023 09 11.26836619 43 18.974-24 49 32.96         20.21GVEO097F52
     K24O00R  C2023 09 11.27344719 43 18.939-24 49 32.74         20.22GVEO097F52
     K24O00R  C2023 09 11.27852819 43 18.910-24 49 32.50         20.16GVEO097F52
     K24O00R  C2024 06 02.56988020 39 59.308-18 27 34.55         19.90GVEO097F52
     K24O00R  C2024 06 02.58041020 39 59.247-18 27 34.23         19.98GVEO097F52
     K24O00R  C2024 06 02.59096820 39 59.180-18 27 33.99         20.10GVEO097F52
     K24O00R  C2024 06 02.60149520 39 59.122-18 27 33.70         20.07GVEO097F52
     K24O00R  C2024 06 07.50946420 39 28.377-18 25 34.02         19.91GVEO097F51
     K24O00R  C2024 06 07.52110620 39 28.297-18 25 33.76         19.89GVEO097F51
     K24O00R  C2024 06 07.53274820 39 28.211-18 25 33.49         19.86GVEO097F51
     K24O00R  C2024 06 07.54441820 39 28.127-18 25 33.25         19.78GVEO097F51
     K24O00R  C2024 06 11.53449920 38 58.085-18 24 12.66         19.96GVEO097F52
     K24O00R  C2024 06 11.54569920 38 58.003-18 24 12.62         19.71GVEO097F52
     K24O00R  C2024 06 11.55688720 38 57.898-18 24 12.23         19.84GVEO097F52
     K24O00R  C2024 06 11.56808820 38 57.804-18 24 12.01         19.85GVEO097F52
     K24O00R  C2024 06 15.55590220 38 23.531-18 23 05.49         20.04GVEO097F51
     K24O00R  C2024 06 15.56694320 38 23.422-18 23 05.29         20.00GVEO097F51
     K24O00R  C2024 06 15.57797020 38 23.323-18 23 05.16         19.92GVEO097F51
     K24O00R  C2024 06 15.58898320 38 23.218-18 23 05.02         19.88GVEO097F51
     K24O00R  C2024 06 29.50685420 35 54.251-18 20 47.41         19.68GVEO097F52
     K24O00R  C2024 07 05.48678720 34 38.444-18 20 25.96         19.64GVEO097F51
     K24O00R  C2024 07 05.49779820 34 38.294-18 20 26.02         19.49GVEO097F51
     K24O00R  C2024 07 05.50880220 34 38.147-18 20 26.04         19.52GVEO097F51
     K24O00R  C2024 07 05.51980520 34 38.001-18 20 25.88         19.59GVEO097F51
     K24O00R* C2024 07 27.38794020 29 25.428-18 20 54.19         19.92wXEO097F51
     K24O00R  C2024 07 27.39961120 29 25.236-18 20 54.21         19.91wXEO097F51
     K24O00R  C2024 07 27.41125520 29 25.071-18 20 54.17         19.68wXEO097F51
     K24O00R KB2024 07 27.85908 20 29 18.37 -18 20 55.8          19.7 VZEO097M45
     K24O00R KB2024 07 27.86370 20 29 18.33 -18 20 55.5          19.6 VZEO097M45
     K24O00R KB2024 07 27.86815 20 29 18.25 -18 20 55.6          19.5 VZEO097M45
     K24O00R 3C2024 07 28.52963220 29 08.370-18 20 57.46         19.39GVEO097T14
     K24O00R 3C2024 07 28.53084020 29 08.353-18 20 57.46         19.40GVEO097T14
     K24O00R 3C2024 07 28.53206620 29 08.334-18 20 57.44         19.40GVEO097T14
     K24O00R KB2024 07 28.54246220 29 08.23 -18 20 56.8          19.4 VXEO097Q20
     K24O00R KB2024 07 28.67875620 29 06.13 -18 20 57.5          17.3 VXEO097Q20
     K24O00R KB2024 07 28.90983220 29 02.77 -18 20 58.8          19.3 GXEO097I93
     K24O00R KB2024 07 28.97749720 29 01.73 -18 20 58.7          19.2 GXEO097I93
     K24O00R KB2024 07 29.11931520 28 59.603-18 20 58.70         19.6 VZEO097Y05
     K24O00R KB2024 07 29.13336620 28 59.384-18 20 58.73         20.0 VZEO097Y05
     K24O00R KB2024 07 29.14671920 28 59.188-18 20 58.99         19.8 VZEO097Y05
     K24O00R KC2024 07 29.89169820 28 48.10 -18 21 01.8          19.3 GXEO097595
     K24O00R KC2024 07 29.91815 20 28 47.64 -18 21 01.2          19.2 GXEO097G02
     K24O00R KC2024 07 29.92384120 28 47.61 -18 21 01.1          19.7 GXEO097595
     K24O00R KC2024 07 29.93528 20 28 47.42 -18 21 01.3          19.4 GXEO097G02
Observer details:
595 Farra d'Isonzo.  Observers G. D'Agostino, G. Ierman, E. Pettarin.
    Measurer E. Pettarin.  0.61-m f/4.5 reflector + CCD.
F51 Pan-STARRS 1, Haleakala.  Observers J. Herman, T. Lowe, P. Minguez, A.
    Schultz, I. Smith.  Measurers K. Chambers, T. de Boer, J. Fairlamb, H.
    Gao, M. Huber, C.-C. Lin, E. Magnier, Y. Ramanjooloo, R. Wainscoat, R.
    Weryk.  1.8-m Ritchey-Chretien + CCD.
F52 Pan-STARRS 2, Haleakala.  Observers J. Herman, T. Lowe, P. Minguez, A.
    Schultz, I. Smith.  Measurers K. Chambers, T. de Boer, J. Fairlamb, H.
    Gao, M. Huber, C.-C. Lin, E. Magnier, Y. Ramanjooloo, R. Wainscoat, R.
    Weryk.  1.8-m Ritchey-Chretien + CCD.
G02 KYSUCE Observatory, Kysucke Nove Mesto.  Observer M. Urbanik.  0.40-m
    f/6.8 Corrected Dall-Kirkham + CCD.
I93 St Pardon de Conques.  Observer F. Losse.  0.40-m f/3.7 reflector + CMO.
M45 Starhopper Observatory, Sfantu Gheorghe.  Observer F. Ursache.  0.41-m
    f/7.5 reflector + CMO.
Q20 Swan Reach Imaging, Glenalta.  Observer J. Jahn.  0.30-m f/3.8 reflector +
    CMO.
T14 Canada-France-Hawaii Telescope, Maunakea.  Observers R. Wainscoat, J.
    Silva, H. Flewelling.  Measurers R. Weryk, R. Wainscoat.  3.6-m f/4.1
    reflector + CCD.
Y05 SONEAR Wykrota-CEAMIG, Serra da Piedade.  Observers C. Jacques, A.
    Caetano, E. Pimentel.  Measurer C. Jacques.  0.45-m f/2.9 reflector + CMO.
Orbital elements:
2024 OR                                                                         
Epoch 2024 Oct. 17.0 TT = JDT 2460600.5                 Veres                   
M 358.34350              (2000.0)            P               Q                  
n   0.00610471     Peri.   11.40281     +0.69421793     +0.62203888             
a  29.6500783      Node   303.88547     -0.68991839     +0.43170634             
e   0.5832097      Incl.   25.86202     -0.20511965     +0.65322069             
P 161              H    8.93          G   0.15           U   3                  
Residuals in seconds of arc
220704 F52  0.0   0.0     230818 F51  0.0   0.1-    240705 F51  0.0   0.0
220704 F52  0.0   0.1-    230911 F52  0.0   0.0     240705 F51  0.0   0.1-
220704 F52  0.0   0.0     230911 F52  0.0   0.0     240705 F51  0.0   0.0
220704 F52  0.1-  0.1-    230911 F52  0.1-  0.0     240727 F51  0.1+  0.1-
220801 F52  0.1+  0.0     230911 F52  0.0   0.0     240727 F51  0.1-  0.0
220801 F52  0.0   0.0     240602 F52  0.0   0.0     240727 F51  0.1+  0.0
220801 F52  0.0   0.0     240602 F52  0.0   0.0     240727 M45  0.5-  0.1-
220801 F52  0.0   0.0     240602 F52  0.1-  0.0     240727 M45  0.1-  0.2+
230516 F51  0.2-  0.0     240602 F52  0.0   0.0     240727 M45  0.3-  0.2+
230516 F51  0.1+  0.1+    240607 F51  0.0   0.0     240728 T14  0.0   0.0
230516 F51  0.1+  0.1+    240607 F51  0.0   0.0     240728 T14  0.0   0.0
230616 F51  0.0   0.0     240607 F51  0.0   0.0     240728 T14  0.0   0.0
230620 F52  0.2+  0.2-    240607 F51  0.0   0.0     240728 Q20  0.0   0.1+
230628 F51  0.0   0.1+    240611 F52  0.0   0.0     240728 Q20  0.4-  0.3-
230628 F51  0.0   0.0     240611 F52  0.1+  0.2-    240728 I93  0.2+  0.0
230628 F51  0.0   0.0     240611 F52  0.0   0.0     240728 I93  0.0   0.3+
230628 F51  0.0   0.0     240611 F52  0.0   0.0     240729 Y05  0.2-  0.1+
230805 F52  0.0   0.0     240615 F51  0.0   0.0     240729 Y05  0.3-  0.1+
230805 F52  0.0   0.0     240615 F51  0.1-  0.1+    240729 Y05  0.2-  0.1-
230805 F52  0.0   0.0     240615 F51  0.0   0.0     240729 595  0.4-  0.1-
230818 F51  0.0   0.0     240615 F51  0.0   0.0     240729 G02 (1.2-  0.6+)
230818 F51  0.0   0.0     240629 F52  0.1-  0.2+    240729 595  0.5-  0.7+
230818 F51  0.1-  0.1+    240705 F51  0.0   0.0     240729 G02  0.7-  0.6+
Ephemeris:
2024 OR                  a,e,i = 29.65, 0.58, 26                 q = 12.3579
Date    TT    R. A. (2000) Decl.     Delta      r    Elong.  Phase     V
2024 06 30    20 35 48.2 -18 20 45  11.5345 12.4392   151.7     2.2    20.0
...
2024 07 15    20 32 27.3 -18 20 24  11.4412 12.4330   166.8     1.1    19.9
...
2024 07 23    20 30 30.6 -18 20 41  11.4176 12.4297   174.9     0.4    19.8
...
2024 07 29    20 29 01.4 -18 20 58  11.4122 12.4273   178.8     0.1    19.7
2024 07 30    20 28 46.5 -18 21 01  11.4123 12.4269   177.9     0.2    19.7
2024 07 31    20 28 31.6 -18 21 04  11.4128 12.4266   176.9     0.3    19.8
...
2024 08 06    20 27 03.0 -18 21 19  11.4217 12.4242   170.9     0.7    19.8
...
2024 08 14    20 25 08.7 -18 21 28  11.4500 12.4212   162.8     1.4    19.9
...
2024 08 29    20 21 57.2 -18 20 36  11.5510 12.4157   147.6     2.5    20.0
M. P. C. Staff               (C) Copyright 2024 MPC           M.P.E.C. 2024-O97
    
    
More information about the Iaude
mailing list